When you browse on this site, cookies collect data to enhance your experience and personalize the content and advertising you see.
Visit our Privacy Policy to learn more. By continuing to use the site, you agree to this use of cookies and data.
  • In Hungary
  • List of Countries
  • For 7 days
  • Water Temperature
  • Satellite Maps
  • Weather Map
  • News
  • Weather Widgets
  • user-avatar
    Login

    Hourly Weather Potoky

    Today, 24 July, Wednesday

    Time Temperature Precipitation Wind Pressure Humidity
    00:00 +16°C° 0 mm 2 mps 740 mmHg 89%
    01:00 +16°C° 0 mm 2 mps 739 mmHg 89%
    02:00 +16°C° 0 mm 3 mps 739 mmHg 90%
    03:00 +14°C° 0 mm 3 mps 739 mmHg 91%
    04:00 +14°C° 0 mm 3 mps 739 mmHg 92%
    05:00 +14°C° 0 mm 3 mps 739 mmHg 93%
    06:00 +17°C° 0 mm 4 mps 739 mmHg 89%
    07:00 +18°C° 0 mm 4 mps 739 mmHg 85%
    08:00 +19°C° 0 mm 5 mps 739 mmHg 81%
    09:00 +20°C° 0.5 mm 5 mps 739 mmHg 77%
    10:00 +21°C° 0.5 mm 5 mps 739 mmHg 73%
    11:00 +22°C° 0.5 mm 6 mps 739 mmHg 69%
    12:00 +23°C° 0.7 mm 6 mps 739 mmHg 69%
    13:00 +23°C° 0.7 mm 6 mps 738 mmHg 68%
    14:00 +23°C° 0.7 mm 6 mps 738 mmHg 68%
    15:00 +23°C° 0.6 mm 6 mps 738 mmHg 69%
    16:00 +23°C° 0.6 mm 6 mps 739 mmHg 71%
    17:00 +23°C° 0.6 mm 5 mps 739 mmHg 72%
    18:00 +21°C° 0.1 mm 4 mps 739 mmHg 77%
    19:00 +20°C° 0.1 mm 4 mps 739 mmHg 82%
    20:00 +19°C° 0.1 mm 3 mps 739 mmHg 87%
    21:00 +18°C° 0 mm 3 mps 739 mmHg 88%
    22:00 +17°C° 0 mm 3 mps 739 mmHg 90%
    23:00 +17°C° 0 mm 3 mps 740 mmHg 91%

    Tomorrow, 25 July, Thursday

    Time Temperature Precipitation Wind Pressure Humidity
    00:00 +16°C° 0 mm 3 mps 740 mmHg 92%
    01:00 +16°C° 0 mm 3 mps 740 mmHg 93%
    02:00 +14°C° 0 mm 3 mps 740 mmHg 94%
    03:00 +14°C° 0 mm 3 mps 740 mmHg 94%
    04:00 +14°C° 0 mm 3 mps 740 mmHg 94%
    05:00 +14°C° 0 mm 3 mps 740 mmHg 93%
    06:00 +15°C° 0 mm 4 mps 740 mmHg 87%
    07:00 +18°C° 0 mm 4 mps 740 mmHg 80%
    08:00 +19°C° 0 mm 5 mps 740 mmHg 74%
    09:00 +21°C° 0 mm 5 mps 741 mmHg 68%
    10:00 +22°C° 0 mm 5 mps 741 mmHg 63%
    11:00 +23°C° 0 mm 5 mps 741 mmHg 58%
    12:00 +23°C° 0.1 mm 5 mps 741 mmHg 57%
    13:00 +25°C° 0.1 mm 5 mps 741 mmHg 57%
    14:00 +25°C° 0.1 mm 5 mps 740 mmHg 56%
    15:00 +25°C° 0.1 mm 5 mps 740 mmHg 57%
    16:00 +25°C° 0.1 mm 5 mps 740 mmHg 58%
    17:00 +25°C° 0.1 mm 4 mps 740 mmHg 59%
    18:00 +22°C° 0.1 mm 3 mps 740 mmHg 65%
    19:00 +20°C° 0.1 mm 2 mps 740 mmHg 72%
    20:00 +20°C° 0.1 mm 1 mps 740 mmHg 78%
    21:00 +18°C° 0 mm 2 mps 740 mmHg 79%
    22:00 +18°C° 0 mm 2 mps 740 mmHg 81%
    23:00 +17°C° 0 mm 3 mps 740 mmHg 82%

    Day after tomorrow, 26 July, Friday

    Time Temperature Precipitation Wind Pressure Humidity
    00:00 +17°C° 0.5 mm 3 mps 739 mmHg 85%
    01:00 +16°C° 0.5 mm 3 mps 739 mmHg 88%
    02:00 +16°C° 0.5 mm 3 mps 739 mmHg 91%
    03:00 +16°C° 0.2 mm 3 mps 739 mmHg 92%
    04:00 +15°C° 0.2 mm 2 mps 738 mmHg 93%
    05:00 +15°C° 0.2 mm 2 mps 738 mmHg 94%
    06:00 +16°C° 0 mm 2 mps 738 mmHg 90%
    07:00 +18°C° 0 mm 2 mps 738 mmHg 86%
    08:00 +19°C° 0 mm 2 mps 738 mmHg 83%
    09:00 +21°C° 0 mm 1 mps 738 mmHg 77%
    10:00 +22°C° 0 mm 1 mps 738 mmHg 72%
    11:00 +24°C° 0 mm 1 mps 738 mmHg 67%
    12:00 +24°C° 0.3 mm 1 mps 738 mmHg 63%
    13:00 +25°C° 0.3 mm 1 mps 737 mmHg 59%
    14:00 +26°C° 0.3 mm 1 mps 737 mmHg 55%
    15:00 +26°C° 0.5 mm 1 mps 737 mmHg 57%
    16:00 +25°C° 0.5 mm 1 mps 737 mmHg 59%
    17:00 +25°C° 0.5 mm 1 mps 737 mmHg 61%
    18:00 +24°C° 0.2 mm 1 mps 737 mmHg 67%
    19:00 +22°C° 0.2 mm 1 mps 736 mmHg 72%
    20:00 +20°C° 0.2 mm 1 mps 736 mmHg 78%
    21:00 +20°C° 0 mm 1 mps 736 mmHg 80%
    22:00 +19°C° 0 mm 1 mps 736 mmHg 82%
    23:00 +18°C° 0 mm 1 mps 736 mmHg 84%

    27 July, Saturday

    Time Temperature Precipitation Wind Pressure Humidity
    00:00 +18°C° 0 mm 1 mps 736 mmHg 85%
    01:00 +18°C° 0 mm 1 mps 736 mmHg 87%
    02:00 +16°C° 0 mm 1 mps 736 mmHg 88%
    03:00 +16°C° 0 mm 1 mps 735 mmHg 89%
    04:00 +16°C° 0 mm 1 mps 735 mmHg 89%
    05:00 +16°C° 0 mm 1 mps 735 mmHg 89%
    06:00 +18°C° 0 mm 1 mps 735 mmHg 85%
    07:00 +20°C° 0 mm 1 mps 735 mmHg 81%
    08:00 +21°C° 0 mm 1 mps 735 mmHg 77%
    09:00 +23°C° 0.3 mm 1 mps 735 mmHg 72%
    10:00 +24°C° 0.3 mm 1 mps 735 mmHg 67%
    11:00 +25°C° 0.3 mm 1 mps 735 mmHg 61%
    12:00 +25°C° 1.4 mm 1 mps 735 mmHg 62%
    13:00 +25°C° 1.4 mm 1 mps 735 mmHg 62%
    14:00 +25°C° 1.4 mm 1 mps 734 mmHg 62%
    15:00 +25°C° 1.1 mm 1 mps 734 mmHg 63%
    16:00 +25°C° 1.1 mm 1 mps 734 mmHg 64%
    17:00 +25°C° 1.1 mm 1 mps 734 mmHg 65%
    18:00 +23°C° 0.4 mm 1 mps 734 mmHg 70%
    19:00 +21°C° 0.4 mm 2 mps 734 mmHg 76%
    20:00 +19°C° 0.4 mm 2 mps 734 mmHg 81%
    21:00 +19°C° 0.1 mm 2 mps 734 mmHg 84%
    22:00 +18°C° 0.1 mm 2 mps 734 mmHg 87%
    23:00 +17°C° 0.1 mm 2 mps 734 mmHg 91%

    28 July, Sunday

    Time Temperature Precipitation Wind Pressure Humidity
    00:00 +17°C° 0 mm 2 mps 734 mmHg 92%
    01:00 +17°C° 0 mm 2 mps 734 mmHg 93%
    02:00 +16°C° 0 mm 2 mps 734 mmHg 94%
    03:00 +16°C° 0 mm 2 mps 734 mmHg 95%
    04:00 +16°C° 0 mm 2 mps 734 mmHg 96%
    05:00 +16°C° 0 mm 2 mps 734 mmHg 96%
    06:00 +18°C° 0 mm 3 mps 734 mmHg 92%
    07:00 +19°C° 0 mm 3 mps 734 mmHg 88%
    08:00 +21°C° 0 mm 3 mps 734 mmHg 84%
    09:00 +22°C° 0.5 mm 3 mps 734 mmHg 79%
    10:00 +24°C° 0.5 mm 3 mps 734 mmHg 73%
    11:00 +26°C° 0.5 mm 3 mps 734 mmHg 68%
    12:00 +26°C° 0.5 mm 3 mps 734 mmHg 66%
    13:00 +26°C° 0.5 mm 3 mps 734 mmHg 65%
    14:00 +26°C° 0.5 mm 3 mps 733 mmHg 63%
    15:00 +26°C° 0.6 mm 3 mps 733 mmHg 67%
    16:00 +25°C° 0.6 mm 4 mps 733 mmHg 71%
    17:00 +25°C° 0.6 mm 4 mps 733 mmHg 75%
    18:00 +24°C° 0.5 mm 3 mps 733 mmHg 80%
    19:00 +21°C° 0.5 mm 3 mps 733 mmHg 85%
    20:00 +20°C° 0.5 mm 2 mps 733 mmHg 90%
    21:00 +20°C° 0 mm 3 mps 733 mmHg 92%
    22:00 +19°C° 0 mm 3 mps 733 mmHg 93%
    23:00 +19°C° 0 mm 4 mps 733 mmHg 95%

    29 July, Monday

    Time Temperature Precipitation Wind Pressure Humidity
    00:00 +19°C° 0 mm 4 mps 733 mmHg 95%
    01:00 +18°C° 0 mm 4 mps 734 mmHg 95%
    02:00 +17°C° 0 mm 5 mps 734 mmHg 96%
    03:00 +18°C° 0 mm 4 mps 734 mmHg 95%
    04:00 +17°C° 0 mm 4 mps 734 mmHg 95%
    05:00 +17°C° 0 mm 4 mps 734 mmHg 94%
    06:00 +16°C° 0 mm 5 mps 735 mmHg 91%
    07:00 +15°C° 0 mm 5 mps 735 mmHg 88%
    08:00 +15°C° 0 mm 5 mps 735 mmHg 85%
    09:00 +16°C° 0 mm 5 mps 736 mmHg 77%
    10:00 +17°C° 0 mm 6 mps 736 mmHg 69%
    11:00 +19°C° 0 mm 6 mps 736 mmHg 62%
    12:00 +20°C° 0 mm 6 mps 736 mmHg 60%
    13:00 +20°C° 0 mm 6 mps 736 mmHg 59%
    14:00 +20°C° 0 mm 6 mps 737 mmHg 57%
    15:00 +20°C° 0 mm 6 mps 737 mmHg 58%
    16:00 +19°C° 0 mm 6 mps 737 mmHg 59%
    17:00 +19°C° 0 mm 6 mps 737 mmHg 60%
    18:00 +16°C° 0 mm 5 mps 737 mmHg 65%
    19:00 +15°C° 0 mm 4 mps 738 mmHg 70%
    20:00 +13°C° 0 mm 3 mps 738 mmHg 75%
    21:00 +12°C° 0 mm 3 mps 738 mmHg 77%
    22:00 +11°C° 0 mm 3 mps 739 mmHg 79%
    23:00 +10°C° 0 mm 3 mps 739 mmHg 80%
    Show more